Notices

What's New in latest Release from April 7th, 2021:

- Updated Glossary, including Speed of Maximum Gust, and Total Hourly Precipitation

- Updated national and regional climate services offices contacts and prices information

- Addition of station inventory lists for 1981-2010, 1971-2000, and 1961-1990 Normals.

If you haven't already, please take our survey and provide feedback about our website: https://eccc.sondage-survey.ca/f/LanguageSelection.aspx?s=442ca660-fcf1-47c0-95a9-59707d6fd709

Hourly Data Report for April 11, 2021

CORNER BROOK
NEWFOUNDLAND
Current Station Operator: ECCC - MSC

48°56'00.000" N
57°55'00.000" W
151.80 m
8401298
71973
WKB

Download Data

Hourly Data (April 2021)
Hourly Data Report for April 11, 2021
TIME
LST
Temp Definition
°C
Dew Point Definition
°C
Rel Hum Definition
%
Precip. Amount Definition
mm

Wind Dir Definition
10's deg

Wind Spd Definition
km/h
Visibility Definition
km
Stn Press Definition
kPa
Hmdx Definition


Wind Chill Definition


Weather Definition


00:30 0.0 -0.9 93 1.0 29 13   98.47   -4 LegendNANA
01:30 -0.1 -0.9 94 1.9 29 13   98.39   -4 LegendNANA
02:30 -0.1 -0.9 94 1.8 30 12   98.31   -4 LegendNANA
03:30 0.0 -0.7 95 1.7 31 5   98.30   -2 LegendNANA
04:30 0.2 -0.5 95 1.4 33 5   98.21     LegendNANA
05:30 0.4 -0.4 95 1.0 33 6   98.22     LegendNANA
06:30 0.7 0.0 95 0.0 31 5   98.27     LegendNANA
07:30 2.1 1.3 95 1.2 3 17   98.29     LegendNANA
08:30 2.9 2.0 94 0.0 3 20   98.31     LegendNANA
09:30 3.6 2.5 92 0.0 4 19   98.35     LegendNANA
10:30 4.5 3.2 91 0.6 3 23   98.42     LegendNANA
11:30 4.6 3.2 90 0.0 4 23   98.44     LegendNANA
12:30 5.3 3.9 91 0.0 5 24   98.49     LegendNANA
13:30 6.1 4.7 91 0.0 5 25   98.52     LegendNANA
14:30 6.8 5.2 89 0.0 5 21   98.59     LegendNANA
15:30 7.6 5.6 87 0.0 5 16   98.62     LegendNANA
16:30 7.0 5.4 90 0.0 3 19   98.69     LegendNANA
17:30 6.3 4.8 90 1.3 1 15   98.76     LegendNANA
18:30 5.7 4.3 90 0.0 1 14   98.80     LegendNANA
19:30 5.0 3.6 90 0.8 4 20   98.84     LegendNANA
20:30 4.7 3.3 91 0.0 4 16   98.90     LegendNANA
21:30 4.9 3.7 91 1.5 7 11   98.92     LegendNANA
22:30 5.1 3.8 91 1.5 7 12   98.97     LegendNANA
23:30 4.9 3.6 92 1.5 4 5   99.02     LegendNANA

Notes on Data Quality.

Legend

  • E = Estimated
  • M = Missing
  • NA = Not Available*
  • [empty] = Indicates an unobserved value
Date modified: